Flag for Germany Weather past 2 weeks in Vaihingen an der Enz, Baden-Württemberg, Germany

Now
63 °F

Passing clouds.


Feels Like: 63 °F
Forecast: 48 / 63 °F
Wind: 9 mph from Southwest

Location: Stuttgart-Echterdingen

Current Time: May 6, 2015 at 3:39:07 PM

Latest Report: May 6, 2015 at 3:20 PM


Visibility: N/A

Pressure: 29.98 "Hg

Humidity: 45%

Dew point: 41 °F

Location of Vaihingen an der EnzLocation

Historic Weather in Vaihingen an der Enz — Graph

°F

Vaihingen an der Enz temperature yesterday

Maximum temperature yesterday: 72 °F (at 11:20 AM)
Minimum temperature yesterday: 57 °F (at 9:20 PM)
Average temperature yesterday: 64 °F

Past Weeks' High & Low Weather Summary

 TemperatureHumidityPressure
High72 °F (May 4, 4:50 PM)100% (Apr 27, 9:50 PM)30.36 "Hg (Apr 27, 9:50 PM)
Low32 °F (Apr 23, 6:20 AM)23% (Apr 24, 2:50 PM)29.53 "Hg (Apr 27, 4:50 PM)
Average55 °F72%29.90 "Hg
* Reported Apr 21 2:20 PM — May 6 2:20 PM, Vaihingen an der Enz, Weather by CustomWeather, © 2015

Note: Actual official high and low records may vary slightly from our data, if they occured in-between our weather recording intervals... More about our weather records

Advertising

Vaihingen an der Enz weather history for previous 24 hours

 ConditionsComfort  
Time TempWeatherWind HumidityBarometerVisibility
2:20 PM
Wed, May 6
63 °FPassing clouds.10 mph49%29.98 "HgN/A
1:50 PM61 °FScattered clouds.8 mph52%29.98 "HgN/A
1:20 PM63 °FScattered clouds.5 mph49%30.01 "HgN/A
12:50 PM61 °FPartly sunny.8 mph55%30.01 "HgN/A
12:20 PM61 °FScattered clouds.8 mph59%30.01 "HgN/A
11:50 AM61 °FScattered clouds.8 mph59%30.01 "HgN/A
11:20 AM57 °FBroken clouds.6 mph67%30.01 "HgN/A
10:50 AM57 °FBroken clouds.8 mph63%30.01 "HgN/A
10:20 AM57 °FBroken clouds.5 mph67%30.01 "HgN/A
9:50 AM57 °FBroken clouds.6 mph67%30.01 "HgN/A
9:20 AM55 °FBroken clouds.7 mph72%29.98 "HgN/A
8:50 AM55 °FBroken clouds.7 mph82%30.01 "HgN/A
8:20 AM55 °FBroken clouds.7 mph82%29.98 "HgN/A
7:50 AM55 °FBroken clouds.3 mph94%30.01 "HgN/A
7:20 AM54 °FLight rain. Partly sunny.1 mph100%29.98 "HgN/A
6:50 AM54 °FPassing clouds.1 mph100%29.98 "HgN/A
6:20 AM55 °FPassing clouds.2 mph94%29.95 "HgN/A
5:50 AM54 °FPassing clouds.3 mph100%29.95 "HgN/A
5:20 AM54 °FPassing clouds.2 mph100%29.95 "HgN/A
4:50 AM55 °FPassing clouds.1 mph94%29.95 "HgN/A
4:20 AM55 °FClear.1 mph94%29.95 "Hg10 mi
3:50 AM55 °FClear.3 mph94%29.95 "Hg10 mi
3:20 AM55 °FClear.2 mph94%29.95 "Hg10 mi
2:50 AM54 °FClear.8 mph94%29.95 "Hg10 mi
2:20 AM54 °FClear.5 mph94%29.95 "Hg10 mi
1:50 AM55 °FPassing clouds.3 mph94%29.92 "HgN/A
1:20 AM55 °FPartly cloudy.3 mph94%29.95 "HgN/A
12:50 AM57 °FPartly cloudy.1 mph88%29.92 "HgN/A
12:20 AM57 °FPassing clouds.6 mph88%29.92 "HgN/A
11:50 PM
Tue, May 5
57 °FClear.2 mph88%29.92 "Hg10 mi
11:20 PM57 °FPassing clouds.7 mph88%29.92 "HgN/A
10:50 PM57 °FPassing clouds.5 mph94%29.92 "HgN/A
10:20 PM57 °FLight rain. Partly cloudy.3 mph94%29.89 "HgN/A
9:50 PM57 °FLight rain. Partly cloudy.6 mph94%29.89 "HgN/A
9:20 PM57 °FBroken clouds.2 mph94%29.89 "HgN/A
8:50 PM59 °FLight rain. Broken clouds.6 mph88%29.86 "HgN/A
8:20 PM59 °FLight rain. Broken clouds.6 mph88%29.86 "HgN/A
7:50 PM59 °FRain. Broken clouds.6 mph88%29.83 "HgN/A
7:20 PM59 °FRain. Broken clouds.10 mph88%29.83 "HgN/A
6:50 PM61 °FLight rain. Broken clouds.9 mph83%29.83 "HgN/A
6:20 PM64 °FLight rain. Broken clouds.10 mph73%29.83 "HgN/A
5:50 PM64 °FLight rain. Broken clouds.9 mph73%29.80 "HgN/A
5:20 PM64 °FLight rain. Broken clouds.7 mph73%29.80 "HgN/A
4:50 PM64 °FLight rain. Broken clouds.9 mph73%29.80 "HgN/A
4:20 PM66 °FLight rain. Broken clouds.9 mph64%29.80 "HgN/A
3:50 PM70 °FLight rain. Clear.14 mph53%29.80 "HgN/A
3:20 PM70 °FLight rain. Clear.9 mph57%29.77 "HgN/A
Weather by CustomWeather, © 2015

See weather overviewHow to use our weather pages